Home > Time Zones > World Clock > Weather > Mali > Bamako > Past weeks

Flag for Mali Weather past 2 weeks in Bamako, Mali

Now
86 °F

Clear.


Feels Like: 83 °F
Forecast: 62 / 93 °F
Wind: 14 mph from Northeast

Location: Bamako / Senou

Current Time: Mar 1, 2015 at 12:48:47 PM

Latest Report: Mar 1, 2015 at 12:00 PM


Visibility: 5 mi

Pressure: 30.04 "Hg

Humidity: 9%

Dew point: 21 °F

Location of BamakoLocation

Historic Weather in Bamako — Graph

°F

Bamako temperature yesterday

Maximum temperature yesterday: 91 °F (at 4:30 PM)
Minimum temperature yesterday: 68 °F (at 6:30 AM)
Average temperature yesterday: 78 °F

Past Weeks' High & Low Weather Summary

 TemperatureHumidityPressure
High100 °F (Feb 14, 2:30 PM)57% (Feb 17, 9:00 PM)30.09 "Hg (Feb 17, 9:00 PM)
Low64 °F (Feb 23, 5:30 AM)6% (Feb 18, 1:00 PM)29.77 "Hg (Feb 18, 3:00 PM)
Average81 °F15%29.94 "Hg
* Reported Feb 14 11:30 AM — Mar 1 11:30 AM, Bamako, Weather by CustomWeather, © 2015

Note: Actual official high and low records may vary slightly from our data, if they occured in-between our weather recording intervals... More about our weather records

Advertising

Bamako weather history for previous 24 hours

 ConditionsComfort  
Time TempWeatherWind HumidityBarometerVisibility
11:30 AM
Sun, Mar 1
84 °FClear.15 mph8%30.07 "Hg5 mi
11:00 AM82 °FClear.16 mph9%30.07 "Hg5 mi
10:30 AM81 °FClear.16 mph9%30.09 "Hg5 mi
10:00 AM79 °FClear.17 mph10%30.09 "Hg5 mi
9:30 AM77 °FClear.15 mph11%30.09 "Hg5 mi
9:00 AM75 °FClear.15 mph11%30.07 "Hg5 mi
8:30 AM73 °FClear.14 mph11%30.07 "Hg5 mi
8:00 AM72 °FClear.14 mph12%30.07 "Hg5 mi
7:30 AM70 °FClear.15 mph12%30.04 "Hg5 mi
7:00 AM70 °FClear.13 mph12%30.04 "Hg5 mi
6:30 AM72 °FClear.15 mph12%30.04 "Hg4 mi
6:00 AM72 °FClear.13 mph12%30.01 "Hg4 mi
5:30 AM72 °FClear.10 mph12%30.01 "Hg4 mi
5:00 AM72 °FClear.12 mph11%30.01 "Hg4 mi
4:30 AM70 °FClear.9 mph12%30.01 "Hg4 mi
4:00 AM70 °FClear.9 mph13%30.01 "Hg4 mi
3:30 AM73 °FClear.10 mph11%30.01 "Hg4 mi
3:00 AM73 °FClear.9 mph11%30.01 "Hg4 mi
2:30 AM70 °FClear.7 mph12%30.01 "Hg4 mi
2:00 AM73 °FClear.8 mph11%30.01 "Hg4 mi
1:30 AM75 °FClear.10 mph10%30.04 "Hg4 mi
1:00 AM75 °FClear.10 mph10%30.04 "Hg4 mi
12:30 AM73 °FClear.8 mph12%30.04 "Hg4 mi
12:00 AM70 °FClear.9 mph16%30.07 "Hg4 mi
11:30 PM
Sat, Feb 28
70 °FClear.10 mph17%30.07 "Hg4 mi
11:00 PM70 °FClear.9 mph18%30.07 "Hg4 mi
10:30 PM70 °FClear.10 mph16%30.07 "Hg4 mi
10:00 PM72 °FClear.9 mph15%30.07 "Hg4 mi
9:00 PM77 °FClear.9 mph11%30.04 "Hg4 mi
8:30 PM81 °FDuststorm.8 mph10%30.01 "Hg2 mi
8:00 PM81 °FDuststorm.8 mph9%30.01 "Hg2 mi
7:30 PM79 °FDuststorm.9 mph10%29.98 "Hg2 mi
7:00 PM82 °FDuststorm.10 mph9%29.98 "Hg2 mi
6:30 PM86 °FDuststorm.10 mph8%29.95 "Hg2 mi
6:00 PM88 °FDuststorm.12 mph7%29.95 "Hg2 mi
5:30 PM90 °FDuststorm.8 mph7%29.95 "Hg2 mi
5:00 PM90 °FDuststorm.8 mph7%29.95 "Hg2 mi
4:30 PM91 °FDuststorm.9 mph7%29.92 "Hg2 mi
4:00 PM90 °FDuststorm.9 mph7%29.92 "Hg2 mi
3:30 PM90 °FDuststorm.9 mph7%29.95 "Hg2 mi
3:00 PM90 °FDuststorm.9 mph6%29.95 "Hg2 mi
2:30 PM90 °FDuststorm.9 mph6%29.95 "Hg2 mi
2:00 PM88 °FDuststorm.10 mph6%29.98 "Hg2 mi
1:30 PM88 °FDuststorm.12 mph7%29.98 "Hg2 mi
1:00 PM86 °FDuststorm.13 mph7%30.01 "Hg2 mi
12:30 PM84 °FDuststorm.12 mph8%30.04 "Hg2 mi
12:00 PM82 °FDuststorm.13 mph8%30.04 "Hg2 mi
Weather by CustomWeather, © 2015

See weather overviewHow to use our weather pages